Regional Weather Roundup
Issued by NWS

Home | Current Version | Previous Version | Graphics & Text | Print | Product List | Glossary On
Versions: 1 2 3 4 5 6 7 8 9 10 11 12 13 14 15 16 17 18 19 20 21 22 23 24 25 26 27 28 29 30 31 32 33 34 35 36 37 38 39 40 41 42 43 44 45 46 47 48 49 50
000
ASUS43 KFSD 011910
RWRSD

WEATHER ROUNDUP FOR SOUTH DAKOTA
NATIONAL WEATHER SERVICE SIOUX FALLS SD
200 PM CDT SAT AUG 01 2015

NOTE: "FAIR" INDICATES FEW OR NO CLOUDS BELOW 12,000 FEET WITH NO
SIGNIFICANT WEATHER AND/OR OBSTRUCTIONS TO VISIBILITY.


SDZ001>005-009-010-012>017-012000-
NORTHWEST AND NORTH CENTRAL SOUTH DAKOTA

CITY           SKY/WX    TMP DP  RH WIND       PRES   REMARKS
BUFFALO          N/A     93  34  12 NW14G23   29.90F
FAITH            N/A     95  30  10 NW18      29.92F
MOBRIDGE       SUNNY     93  58  30 W9        29.81F
$$

SDZ012>016-024>037-041>051-057-063-072>074-012000-
SOUTHWEST AND SOUTH CENTRAL SOUTH DAKOTA

CITY           SKY/WX    TMP DP  RH WIND       PRES   REMARKS
RAPID CTY ARPT SUNNY     88  57  34 CALM      30.01F
PIERRE         SUNNY     92  60  34 W17G23    29.87F
CUSTER         MOSUNNY   81  55  40 E9        30.17S
ELLSWORTH AFB  SUNNY     89  53  29 W5        30.00F
PHILIP         SUNNY     87  64  46 SW22G28   29.96F
PINE RIDGE     SUNNY     83  62  49 SE23G31   30.04F
WINNER         FAIR      83  57  41 S26G37    29.93F
$$

SDZ004>011-016>023-039-040-012000-
NORTHEAST SOUTH DAKOTA

CITY           SKY/WX    TMP DP  RH WIND       PRES   REMARKS
ABERDEEN       SUNNY     86  68  54 S16G22    29.84F
WATERTOWN      PTSUNNY   83  65  54 S15       29.91S
BROOKINGS      SUNNY     82  63  51 SW17      29.95F
SISSETON         N/A     82  66  58 S15       29.84F
$$

SDZ017-020-022-023-036>040-048>070-012000-
SOUTHEAST SOUTH DAKOTA

CITY           SKY/WX    TMP DP  RH WIND       PRES   REMARKS
SIOUX FALLS    PTSUNNY   81  62  52 SW10G20   29.94F
HURON          MOSUNNY   88  61  40 SW21G28   29.88F
CHAMBERLAIN    SUNNY     82  61  48 SW15G22   29.93F
MITCHELL       PTSUNNY   83  59  44 SW20G26   29.92F
YANKTON        CLOUDY    77  59  53 SW16G22   29.97S
$$

ABBREVIATIONS USED IN REMARKS
   TC - TEMPERATURE IN CELSIUS
  WCI - WIND CHILL INDEX
   HX - HEAT INDEX
  VSB - VISIBILITY



USA.gov is the U.S. government's official web portal to all federal, state and local government web resources and services.